RH
17 17 18 18 19 19 19 19 18 18 18 17 17 15 14 11 10 9 8 8 8 8 8 8 9 9 9 9 8 8 8 8 8 8 8 9 8 9 9 9 10 9 9 8 7 8 9 10 10 8 9 8 7 9 7 10 9 7 12 16 50 85 89 97 102 99 94 94 101 101 95 94 97 100 100 98 98 91 77 70 55 39 43 42 33 34 33 23
15 15 15 15 16 16 17 18 18 18 18 17 17 17 16 15 13 11 9 8 8 8 8 8 8 9 9 9 9 8 8 8 8 8 8 8 8 9 9 9 10 10 9 8 8 8 9 10 10 9 8 9 8 7 7 9 8 9 9 15 53 81 87 100 104 100 94 93 103 99 97 102 100 100 102 100 99 94 86 86 68 44 47 48 34 29 35 30
17 17 16 15 14 14 14 14 15 16 17 17 17 17 16 16 16 14 13 10 9 8 8 8 8 8 9 9 9 8 8 8 8 8 8 8 8 9 9 9 9 10 10 9 8 7 8 9 10 10 8 9 8 8 7 8 9 9 10 12 35 73 97 105 103 100 98 99 103 102 99 95 93 100 101 100 103 94 88 97 82 55 52 55 40 26 31 35
21 21 20 19 18 16 15 14 13 13 14 15 15 16 16 16 16 16 15 14 12 9 8 8 8 8 8 8 9 9 9 8 8 8 8 8 8 8 8 9 9 10 10 9 9 8 8 8 9 10 9 9 8 9 7 7 10 8 12 13 27 76 106 105 101 96 98 102 104 106 94 75 79 97 100 99 104 93 87 99 92 69 62 65 56 36 27 34
19 19 19 19 19 19 19 17 15 14 13 12 13 14 14 15 15 15 15 15 15 13 10 8 8 8 8 8 8 9 9 8 8 8 8 8 8 9 8 8 9 9 10 10 9 8 8 7 9 10 9 10 8 9 8 7 9 8 12 12 26 73 98 100 101 96 101 104 103 107 97 78 70 81 99 102 101 97 94 102 94 79 72 71 74 59 35 30
15 15 16 17 18 18 19 19 18 17 15 14 12 12 12 13 14 15 15 15 15 15 14 11 9 8 8 8 8 9 9 9 9 8 8 8 8 9 8 8 8 9 9 10 10 9 8 7 8 10 9 9 9 9 9 8 8 8 11 10 18 46 74 97 103 99 103 103 101 105 104 96 79 75 98 104 98 101 101 102 96 88 84 74 77 74 47 30
15 16 18 19 19 20 20 20 19 19 18 17 15 13 12 12 11 13 14 15 15 15 15 15 13 10 8 8 8 8 9 9 9 8 8 8 8 9 9 8 8 9 9 9 10 9 8 8 7 8 10 9 9 9 9 9 9 9 9 11 12 24 65 101 102 99 102 101 101 100 99 103 96 75 81 99 98 100 100 100 99 97 95 80 72 72 52 33
18 20 20 21 21 21 21 21 21 20 20 19 18 16 14 13 11 11 11 13 14 14 15 15 15 13 11 9 8 8 8 9 9 9 8 8 8 8 9 9 8 8 9 9 10 10 9 8 8 7 9 9 9 10 11 11 9 10 9 11 11 18 67 104 100 99 101 102 102 98 92 100 104 70 63 96 101 98 100 100 99 97 99 87 73 66 51 41
19 21 22 22 22 22 22 22 22 22 21 21 20 18 16 15 14 12 11 11 11 13 14 15 15 15 14 12 9 8 8 9 8 9 9 8 8 8 9 9 9 8 8 10 9 10 10 8 8 7 8 9 11 11 12 13 9 10 9 11 12 12 52 92 99 102 101 100 103 99 89 94 104 76 66 87 93 98 101 100 97 93 100 95 84 76 56 49
17 18 20 21 22 23 23 24 24 23 23 23 21 20 19 17 16 14 13 12 10 11 12 14 15 15 15 14 12 10 9 8 8 8 9 9 9 8 9 8 9 9 7 9 9 10 10 9 8 7 8 9 12 12 10 12 11 11 9 10 12 9 30 63 84 99 101 99 102 102 94 94 98 80 69 74 85 103 100 99 100 95 102 100 94 97 81 61
15 15 16 17 19 21 23 24 24 25 25 25 23 21 20 18 18 16 15 14 12 11 11 11 14 15 15 14 14 13 11 9 8 8 9 9 9 8 8 9 8 9 8 8 9 10 10 9 9 7 8 8 10 11 9 12 13 12 9 9 11 9 17 34 56 80 94 98 99 101 100 98 94 76 65 69 87 104 99 98 101 98 102 101 98 103 99 81
14 15 15 15 16 17 19 21 22 23 24 25 25 23 21 19 18 18 16 15 14 13 12 11 11 13 15 14 14 15 13 12 9 7 9 8 9 9 8 9 8 9 9 8 8 9 10 9 9 8 8 8 9 11 10 12 14 13 9 9 10 10 12 17 32 56 81 97 94 94 101 101 97 77 63 78 96 100 100 101 99 101 101 100 101 97 99 96
15 15 16 15 15 16 16 17 18 19 21 22 24 23 23 21 19 18 17 16 15 14 13 12 11 11 12 14 14 15 15 14 11 8 8 9 9 9 9 8 9 9 8 9 8 8 10 10 9 9 9 8 8 11 13 12 13 14 11 9 11 11 12 11 19 37 63 93 94 83 92 104 102 83 67 83 103 99 99 102 98 102 100 99 103 94 93 101
15 15 16 16 16 16 15 15 16 16 17 19 21 22 22 22 20 18 17 17 16 15 14 13 13 11 11 12 13 15 15 15 13 10 8 9 9 9 9 9 8 9 9 9 9 8 9 10 10 9 9 8 8 9 12 12 11 13 12 10 10 10 12 10 14 24 40 79 98 76 72 93 104 95 74 73 96 104 99 100 100 101 100 100 101 90 88 101
16 16 17 17 17 16 16 15 15 15 15 16 18 20 20 21 20 19 17 17 17 16 16 14 14 13 11 11 12 14 14 15 14 12 10 9 9 9 9 9 9 8 9 9 9 9 8 9 10 10 9 8 8 8 10 12 11 12 13 11 9 9 12 12 12 16 24 56 90 80 60 71 95 103 88 71 82 99 97 95 100 100 98 101 100 90 92 101
17 18 19 19 18 17 16 15 15 15 15 15 16 18 19 19 19 18 17 17 17 17 17 16 14 14 13 11 11 12 13 15 14 13 13 10 9 9 9 9 10 9 8 9 9 9 8 9 10 10 9 8 8 8 8 12 11 12 14 12 10 9 11 14 14 14 18 36 68 83 65 59 83 102 99 85 75 85 97 95 98 102 98 99 100 99 100 91
19 20 20 19 19 18 17 16 15 15 15 15 15 16 17 18 18 17 17 17 17 18 18 18 16 14 14 13 11 11 12 13 14 13 13 13 10 9 9 9 9 10 8 9 9 10 9 8 10 10 10 8 8 8 7 10 13 13 13 13 12 12 10 12 16 16 16 24 47 76 74 56 73 97 102 97 74 74 100 101 97 103 99 97 100 103 97 83
20 20 20 20 20 20 19 17 17 16 16 16 16 15 15 15 16 16 16 17 17 19 19 19 18 16 14 14 13 12 11 12 13 13 13 14 13 10 9 9 9 10 9 9 9 10 11 9 9 10 10 9 8 8 8 9 12 13 13 14 14 12 11 10 14 15 14 19 33 63 77 57 58 81 98 103 81 74 96 102 101 101 95 96 100 102 97 92
21 21 21 22 23 22 21 20 19 19 17 17 15 14 13 13 14 14 14 16 17 20 21 20 19 18 16 15 14 13 12 12 12 13 13 14 14 12 10 9 9 9 9 10 9 10 11 10 9 9 10 11 9 8 9 8 9 11 11 13 14 11 10 9 12 13 12 17 22 45 73 65 52 64 87 104 95 85 92 98 104 97 89 98 102 100 100 100
22 23 24 25 25 24 23 22 21 20 18 17 14 12 12 11 11 12 13 15 17 20 21 20 20 20 19 16 15 14 13 13 12 11 12 13 15 14 12 10 9 9 10 10 10 10 11 11 11 10 11 12 12 8 8 8 7 8 10 12 16 13 10 10 11 12 12 16 17 35 68 71 59 58 74 100 103 95 94 92 91 85 86 99 99 94 97 99
25 27 28 27 27 26 25 24 22 21 18 15 13 11 10 10 10 11 13 15 17 20 21 21 22 22 21 20 18 16 14 14 12 11 11 12 14 15 14 12 10 10 10 10 10 10 10 11 12 11 11 11 12 10 7 8 7 7 9 12 16 15 12 11 12 13 12 14 15 30 56 65 64 60 60 87 104 101 99 91 77 69 80 91 89 87 88 92
29 30 30 29 28 27 26 25 22 19 16 13 11 10 10 10 11 12 15 16 18 20 21 22 23 23 23 23 20 18 16 15 14 11 11 12 13 14 15 13 12 11 10 10 10 11 11 12 13 12 11 10 11 11 8 8 8 8 8 10 13 14 13 13 14 15 12 13 14 23 37 46 61 60 46 63 90 100 103 97 84 80 88 90 87 89 86 90
32 32 31 30 29 28 26 24 21 17 14 12 11 11 11 12 13 15 17 18 20 22 22 22 22 24 24 23 22 19 17 16 15 13 11 11 12 13 15 14 13 11 10 10 10 12 13 13 13 13 12 11 10 11 10 8 8 8 8 8 10 12 12 13 15 16 14 13 12 17 23 27 48 59 44 43 63 87 103 102 97 97 103 100 94 96 94 96
34 33 32 31 30 28 26 22 18 15 14 14 14 13 13 13 14 16 18 19 21 23 22 22 21 23 24 23 23 20 18 16 16 15 12 11 12 12 14 15 14 12 11 11 11 13 14 13 12 12 13 12 10 10 11 10 8 8 8 8 9 10 11 13 13 13 13 15 12 13 18 18 33 52 46 37 47 69 93 103 102 100 102 102 99 100 101 101
35 35 33 32 30 27 24 19 16 15 16 16 16 16 15 15 15 17 18 18 20 22 22 22 21 22 23 24 23 21 19 18 16 16 14 12 12 12 13 15 15 13 12 12 12 13 14 13 12 12 13 12 10 10 11 12 11 8 8 8 8 9 10 11 14 16 11 13 16 11 15 16 21 41 43 37 42 51 74 98 104 103 102 100 100 100 101 103
37 36 34 32 29 25 21 18 17 18 19 20 19 19 19 18 18 18 18 18 18 19 20 21 21 21 22 23 23 21 21 20 18 17 15 14 13 12 12 15 16 14 13 13 13 14 14 13 13 13 13 13 12 10 11 14 14 11 8 7 9 9 10 9 22 46 33 13 17 14 12 16 16 30 38 36 37 39 63 95 102 104 105 99 100 100 100 104
38 36 34 31 26 22 20 19 20 22 23 23 22 23 23 22 22 21 20 19 18 18 18 19 19 19 21 21 21 21 22 21 20 18 16 15 14 13 13 14 16 15 13 12 13 15 14 13 14 13 13 13 13 12 11 14 18 16 9 7 9 8 11 6 18 67 67 22 13 16 11 15 16 20 27 30 31 32 56 88 97 101 104 101 100 100 100 102
38 35 32 27 23 21 22 22 25 26 25 25 25 27 28 28 28 27 25 23 21 19 19 18 18 18 19 20 21 22 23 22 21 19 17 17 15 14 13 13 16 16 14 13 13 16 16 14 14 14 14 14 14 15 12 16 22 20 11 8 10 6 11 8 5 46 70 31 9 15 12 13 16 17 19 24 28 28 38 60 81 97 103 103 101 98 102 101
37 33 28 24 23 24 25 27 28 28 28 28 30 34 38 40 40 39 38 34 28 25 23 21 20 19 19 21 23 25 26 26 24 22 20 19 17 16 14 13 15 16 16 14 15 17 17 17 15 14 15 15 15 16 14 20 26 20 12 9 10 7 8 11 4 18 46 33 9 13 16 12 15 17 17 20 24 28 31 35 60 95 104 103 103 100 103 104
34 29 25 24 26 28 29 30 30 30 31 35 40 47 52 56 55 53 51 47 40 34 29 25 23 21 22 24 25 27 30 31 29 27 25 22 20 18 16 14 16 17 17 15 15 17 18 18 16 14 16 16 16 17 18 24 24 15 13 10 10 10 6 10 9 7 27 36 19 12 15 15 16 16 16 18 19 29 40 34 45 86 107 104 105 105 104 106
30 25 24 26 30 33 32 32 33 36 41 48 55 60 62 62 59 56 54 51 47 42 36 31 27 25 25 26 28 29 32 35 35 33 30 25 23 21 18 16 16 17 19 18 15 17 19 19 19 17 17 17 16 18 21 22 17 10 11 12 11 11 8 8 10 8 19 32 25 16 14 14 17 17 15 17 17 24 38 38 37 69 104 108 105 108 106 105
27 24 25 29 33 35 34 34 40 46 52 58 63 63 59 54 49 45 43 42 42 40 38 35 31 29 28 27 29 30 32 37 39 36 32 28 26 23 21 19 19 19 21 21 18 16 18 20 22 21 20 19 16 19 23 20 15 11 9 12 13 11 9 9 9 9 12 19 20 16 15 15 17 17 15 16 18 18 24 30 31 46 83 106 105 104 104 104
25 26 28 33 36 36 35 40 50 57 63 66 64 57 49 43 38 35 34 33 33 33 34 34 32 32 32 29 28 31 34 37 39 37 33 31 29 27 25 23 22 24 24 23 19 16 17 18 22 24 22 21 19 21 25 21 15 14 11 10 14 14 11 9 10 10 11 14 15 13 15 18 18 16 16 16 18 18 19 23 27 29 49 82 97 96 97 97
26 30 33 36 38 38 41 51 64 71 73 69 57 47 41 36 33 30 29 28 27 27 28 29 30 31 32 32 29 28 32 36 38 39 36 34 35 34 32 29 27 28 27 24 20 16 16 17 19 23 24 25 25 25 27 22 17 16 13 11 13 15 14 11 9 10 14 17 14 13 17 17 16 15 16 17 16 19 20 19 24 24 25 46 67 74 81 84
30 34 36 37 39 44 52 64 73 77 74 62 48 42 37 33 31 30 27 26 25 24 23 24 26 27 30 32 30 27 28 33 37 39 39 37 37 37 35 31 28 27 26 25 22 17 15 16 16 18 22 27 29 29 28 24 20 19 16 13 12 15 18 15 10 11 19 20 13 17 22 19 18 17 16 16 16 18 20 18 20 23 22 28 37 42 50 58
34 36 37 38 44 55 66 74 79 78 68 54 46 42 36 32 32 31 28 24 23 22 21 22 23 25 28 29 30 30 30 32 35 37 38 36 35 35 32 28 26 23 23 23 21 19 16 15 16 16 18 23 26 28 29 26 21 20 19 16 13 14 18 19 13 12 20 20 12 15 27 28 23 21 18 16 16 16 18 20 19 20 21 22 26 34 37 35
36 37 37 40 53 70 82 84 82 73 60 50 47 42 37 34 33 31 27 23 21 20 20 20 22 24 26 27 30 32 33 34 35 35 36 34 33 33 30 28 26 22 20 20 20 20 18 16 16 16 18 21 23 25 26 26 23 21 20 18 15 14 16 19 16 13 15 16 11 12 23 30 27 22 19 14 15 16 16 18 19 19 21 22 24 33 36 32
37 38 39 45 62 81 89 85 75 65 57 55 51 43 37 35 32 29 24 20 19 18 17 17 19 22 24 26 28 31 34 34 33 31 32 31 30 30 30 29 28 24 21 20 21 22 21 18 16 17 19 20 24 25 24 25 24 22 21 18 17 16 15 17 20 18 14 11 10 11 18 29 32 28 22 16 14 14 14 16 17 17 15 16 22 25 27 29
37 39 43 54 71 83 83 77 71 65 63 61 51 42 38 35 33 27 20 18 18 17 16 15 16 19 21 24 25 28 33 33 31 31 30 29 28 28 29 28 28 28 24 22 23 24 24 21 17 17 19 19 22 24 24 25 25 23 22 20 19 18 16 16 19 21 17 11 10 15 23 35 40 35 30 26 20 17 17 16 16 28 34 23 17 17 20 26
38 43 51 65 81 86 81 76 72 68 67 60 47 41 41 38 32 24 18 18 18 17 17 15 16 16 18 22 24 26 31 33 36 39 37 33 32 31 31 30 29 29 28 26 26 26 24 22 20 18 19 19 20 22 23 26 26 24 22 20 20 20 18 16 16 19 20 14 10 16 28 42 46 41 35 30 26 24 26 26 19 33 64 72 50 25 17 22
39 48 62 78 89 87 81 79 76 71 66 58 47 43 43 39 30 21 18 19 18 19 18 16 16 16 16 19 21 25 29 32 37 44 44 40 38 35 33 34 33 30 30 30 30 29 27 26 21 19 19 19 19 20 22 25 27 26 23 20 19 20 20 20 18 18 20 17 13 14 24 40 48 47 40 32 31 29 34 55 60 48 65 98 96 54 22 20
43 55 71 87 94 87 81 82 79 74 67 57 48 45 44 39 28 20 20 20 19 19 19 17 17 16 15 16 18 23 27 29 34 42 45 46 45 39 35 36 36 32 32 35 35 31 31 31 25 19 19 20 21 20 21 24 27 28 27 23 21 21 21 23 21 19 18 16 16 15 19 32 44 50 46 37 40 44 46 74 99 91 82 97 108 84 41 21
50 63 77 92 95 86 81 84 82 79 73 59 48 47 45 39 29 21 21 21 20 20 19 18 17 16 17 16 16 20 24 27 32 37 41 46 48 43 38 39 39 36 35 37 38 35 33 36 32 24 21 22 23 23 21 22 25 29 30 27 26 26 24 23 22 21 18 14 17 19 17 25 38 50 51 42 43 53 62 83 101 101 95 92 101 102 71 36
56 70 83 94 94 85 83 86 82 80 74 58 49 48 47 41 30 23 23 22 20 20 19 19 19 18 18 18 16 17 20 24 29 34 38 43 47 46 42 42 41 38 36 37 38 36 36 38 37 33 30 28 26 26 24 22 23 25 29 29 29 29 28 26 23 20 18 12 14 20 19 20 30 43 51 48 46 44 54 84 105 98 85 81 94 105 82 46
61 75 87 94 92 87 86 84 79 77 71 57 50 50 50 45 33 24 24 24 22 21 21 20 21 20 19 19 18 17 18 22 26 31 35 38 44 46 45 45 44 39 36 37 38 37 38 41 41 40 40 36 30 27 26 25 22 22 26 28 29 30 30 28 24 21 19 13 10 16 19 20 23 32 43 49 50 45 44 68 98 101 85 71 80 98 89 60
67 79 87 91 92 91 88 85 81 79 71 59 53 52 52 49 37 26 25 26 24 23 23 23 22 22 22 21 21 19 18 20 24 29 34 36 40 44 44 46 47 44 41 41 42 43 42 42 43 44 43 38 33 30 28 26 23 21 23 25 27 29 28 26 24 22 20 16 12 11 15 21 21 22 33 43 49 50 47 52 68 88 96 84 72 75 75 66
76 85 87 91 96 94 91 88 85 80 72 62 58 56 54 52 42 30 27 27 28 26 24 24 23 23 24 24 23 22 19 19 21 26 32 36 37 40 43 46 48 50 50 49 49 51 48 44 46 48 43 36 33 32 30 29 25 21 21 23 24 26 25 24 24 23 20 17 16 12 11 18 23 20 22 33 43 48 46 43 44 57 79 91 83 66 52 48
79 86 87 92 97 96 94 93 85 79 73 66 64 61 56 54 47 36 30 28 29 30 26 24 23 24 25 25 24 24 22 20 20 21 27 33 35 37 40 44 48 51 54 56 55 55 53 50 50 50 44 36 35 34 32 32 29 24 23 25 24 23 23 23 23 22 20 18 17 16 14 15 22 25 22 23 31 40 44 43 41 41 49 63 72 66 55 45
81 86 87 90 94 93 95 93 82 76 74 70 70 66 60 58 51 42 37 33 30 31 30 27 25 26 27 26 25 25 24 22 21 20 22 27 32 36 37 41 46 49 52 57 57 57 57 55 54 52 47 40 38 39 37 36 34 31 30 30 27 24 23 22 22 21 20 19 17 17 18 17 18 24 27 26 25 29 35 39 42 44 43 45 49 52 55 53
83 88 88 89 90 91 94 91 80 76 76 73 73 71 65 62 55 45 42 39 34 32 32 30 29 28 27 26 26 26 25 23 23 22 21 22 27 32 35 37 41 44 48 51 54 56 58 58 58 58 57 52 48 45 43 43 43 40 38 36 31 26 24 21 20 20 19 20 19 18 18 20 20 21 24 29 31 29 28 31 37 44 50 49 46 43 49 55
85 90 91 90 89 89 93 90 81 79 80 76 75 75 70 66 59 48 43 44 42 37 33 32 32 30 28 27 27 26 25 24 23 23 22 22 23 26 31 34 38 42 44 46 49 52 54 58 63 66 64 59 56 52 48 51 56 54 50 45 38 31 26 20 18 18 19 20 21 20 18 19 21 23 22 25 32 36 33 28 27 33 46 54 52 46 44 50
88 92 95 93 88 89 93 89 83 83 82 76 76 78 73 69 64 53 45 44 46 43 37 33 33 32 30 29 28 27 26 25 25 24 22 22 21 22 26 31 36 40 42 44 47 50 52 55 65 76 75 63 59 58 54 58 69 71 63 55 48 40 29 21 18 17 18 19 21 22 22 21 21 24 25 23 25 32 38 38 32 26 28 36 43 47 43 41
Wind_Speed
25 26 26 26 26 26 26 26 25 24 24 24 25 26 29 32 36 39 41 42 43 44 45 45 46 47 48 48 48 48 48 48 47 46 46 47 47 47 47 47 47 46 47 49 49 48 47 45 45 43 42 42 42 42 42 40 38 34 32 29 25 22 20 19 16 13 13 12 12 12 9 11 15 15 12 8 8 7 5 6 8 11 14 17 18 20 22 25
26 27 28 29 30 30 30 30 30 30 29 28 27 27 27 28 31 34 38 41 43 45 45 46 46 47 48 49 49 49 49 49 48 47 47 48 47 48 49 48 48 48 48 49 50 50 49 48 46 45 44 43 43 43 43 42 40 37 35 32 27 24 22 20 19 16 16 14 14 16 15 14 14 13 10 6 8 7 2 2 5 8 11 14 16 18 19 22
24 26 27 29 30 32 33 33 34 34 34 34 33 32 31 30 29 31 34 38 41 44 46 46 47 48 48 49 50 51 51 50 49 48 49 48 48 49 50 50 49 49 49 49 51 52 52 51 49 47 45 44 44 44 45 43 42 40 37 35 30 26 23 21 20 19 18 15 15 19 19 19 15 12 10 10 10 8 5 3 2 5 7 12 15 16 17 19
23 24 26 27 29 31 33 34 36 37 37 38 38 37 36 35 33 32 32 34 37 41 45 47 47 48 49 49 50 51 52 52 51 50 50 49 49 51 51 51 51 51 51 50 52 53 54 53 51 49 47 46 45 45 46 45 44 43 40 38 33 28 25 23 21 19 20 17 17 20 20 21 20 16 14 14 12 10 10 6 2 3 3 7 12 15 16 17
25 26 27 28 29 30 32 33 35 36 38 39 40 41 40 40 38 37 35 35 35 37 41 45 47 49 50 50 51 52 53 53 53 52 51 50 51 51 52 52 52 52 52 52 52 54 55 55 53 52 49 47 46 45 46 46 46 45 43 40 36 32 27 24 23 20 20 19 18 21 22 22 23 20 16 16 15 15 12 6 4 2 1 2 8 13 15 15
29 30 30 30 30 30 31 33 34 36 37 38 39 41 42 43 43 42 40 39 38 37 37 41 45 48 50 51 52 52 54 55 55 54 52 52 52 52 52 53 54 54 54 54 54 54 56 56 55 54 52 49 47 46 47 47 47 46 45 43 40 36 30 26 26 24 22 21 20 22 24 23 24 24 21 19 18 17 12 7 5 3 3 3 4 9 13 13
31 31 31 31 31 31 31 32 33 35 36 38 38 39 41 43 45 45 44 44 43 41 38 38 41 45 49 51 52 53 54 56 56 55 54 54 53 53 54 54 55 55 55 55 54 55 56 57 57 56 55 51 48 47 47 47 48 47 46 45 43 39 32 29 28 28 26 24 23 23 24 24 25 25 23 21 19 16 13 11 8 5 5 4 3 6 11 11
31 31 31 32 32 31 31 31 32 33 35 37 39 40 40 41 43 45 46 47 47 46 43 41 41 42 46 50 52 54 55 56 57 57 57 56 55 55 55 56 56 56 56 56 55 55 56 58 58 58 56 53 50 48 48 49 49 49 48 46 44 41 36 32 31 29 28 26 25 23 24 25 25 25 22 21 19 15 14 12 10 9 8 5 5 6 8 9
32 32 32 33 33 33 33 32 32 33 33 35 39 40 41 41 42 43 46 48 49 49 48 46 45 43 43 46 50 54 56 57 59 58 58 58 57 56 56 57 57 57 56 57 57 57 58 59 60 59 57 55 52 51 51 50 50 50 49 48 46 45 42 37 33 30 28 27 27 24 24 25 25 24 22 21 19 16 15 13 12 13 10 7 6 8 8 7
34 33 33 34 34 35 35 34 34 34 34 35 37 39 41 43 44 44 45 46 49 50 50 50 50 48 46 45 47 51 55 58 59 59 60 60 59 58 57 58 58 58 57 58 58 59 59 60 60 59 58 57 56 54 52 51 50 51 52 50 49 48 47 42 37 33 28 27 29 28 24 24 24 25 21 19 18 17 17 15 14 14 12 9 7 9 11 8
37 37 36 36 36 37 37 37 37 37 37 37 37 38 40 42 44 46 47 47 47 49 51 52 53 53 51 49 47 48 53 57 60 61 61 61 61 60 59 59 59 59 59 59 60 60 60 60 60 61 61 60 59 56 53 52 51 53 54 54 52 51 50 47 43 37 31 28 31 31 28 24 23 25 23 20 19 19 19 17 15 15 14 11 9 11 13 10
42 41 41 40 39 39 39 40 40 40 40 40 39 40 41 42 43 46 48 49 48 48 50 52 54 55 55 55 51 48 50 54 60 62 61 62 63 62 61 61 60 60 60 60 60 61 61 61 61 63 64 62 60 59 56 54 53 54 55 55 53 52 51 49 47 41 35 31 32 33 33 28 24 25 25 22 21 21 20 18 17 16 14 12 11 12 14 12
47 46 45 45 44 43 42 42 42 43 43 44 43 43 42 43 44 45 47 49 50 50 50 52 54 56 58 58 55 53 53 53 58 63 63 63 64 64 63 62 62 62 61 61 61 61 61 61 62 64 65 64 63 63 60 58 56 55 55 56 55 52 51 50 48 44 39 34 32 34 36 32 26 25 26 23 22 24 21 18 18 17 13 12 12 13 15 14
51 51 50 50 49 47 46 45 45 45 45 46 46 47 46 46 47 47 47 48 50 52 52 53 54 57 59 60 59 59 58 56 58 61 63 63 65 66 65 64 63 63 63 62 62 62 63 62 62 65 67 68 68 67 64 61 59 57 56 57 56 54 51 49 48 47 43 38 34 34 36 35 30 26 27 25 23 24 21 17 19 19 15 14 13 13 16 14
56 56 56 55 53 51 49 48 48 47 47 47 47 49 50 50 50 50 49 49 50 52 54 55 56 57 59 60 62 63 62 61 60 59 61 63 64 67 67 66 65 65 64 63 63 64 63 63 63 65 68 71 71 68 66 64 62 59 58 58 58 56 52 49 48 48 47 42 37 35 36 36 34 29 27 26 25 25 23 19 20 21 18 15 14 15 15 12
60 60 60 58 56 54 52 50 50 49 49 49 49 49 51 53 54 53 53 52 51 52 54 56 58 59 59 61 63 64 64 64 63 60 60 63 65 67 68 67 67 66 65 64 64 64 64 63 63 65 68 72 72 69 68 66 64 61 60 58 57 57 54 51 50 49 49 46 41 36 36 37 37 34 28 27 27 26 26 24 23 24 21 15 15 16 14 13
64 64 63 61 58 56 54 53 52 51 51 51 51 51 51 53 55 57 56 55 54 54 55 57 59 60 61 61 63 64 65 66 66 63 60 61 64 67 69 69 69 68 67 66 65 65 65 64 64 65 68 70 72 70 69 68 67 65 62 60 57 57 56 53 51 50 50 49 44 39 37 38 40 39 32 28 29 28 28 27 26 27 22 17 17 18 16 17
67 67 65 63 60 59 57 56 54 54 53 53 52 52 52 53 55 58 59 58 57 58 59 59 59 61 61 62 63 64 65 66 67 66 62 61 63 66 69 70 71 70 69 68 67 66 66 66 66 67 68 68 70 71 72 73 73 70 67 64 61 60 58 55 52 51 51 51 47 42 39 39 40 41 36 30 29 30 30 29 29 28 23 19 20 19 18 18
69 68 66 65 63 62 61 59 58 57 56 55 54 53 52 53 54 58 60 60 60 62 63 61 60 60 60 63 64 65 66 67 69 69 67 64 63 66 69 71 71 71 70 69 68 68 68 68 67 67 67 67 68 73 76 77 76 73 70 66 64 61 60 57 53 52 52 51 50 45 42 41 41 41 39 33 29 30 31 31 31 29 23 21 22 21 18 17
71 69 68 67 67 66 65 63 62 60 59 57 54 52 50 51 52 56 59 61 63 65 66 63 62 61 61 63 65 66 68 69 71 71 70 68 66 66 69 71 72 72 72 72 71 70 70 69 68 67 67 68 69 73 76 78 76 72 69 67 66 63 60 58 55 53 53 53 52 49 44 42 42 42 41 37 33 31 31 32 32 29 26 25 25 23 21 19
73 72 71 70 70 69 68 67 66 63 60 56 51 48 46 47 49 53 58 62 65 67 67 66 65 64 63 64 65 66 69 70 72 73 72 71 69 68 69 71 73 73 75 75 73 72 71 70 69 68 68 69 71 72 74 77 77 73 72 72 70 67 64 61 57 54 54 54 53 52 48 44 43 42 41 40 38 35 31 31 31 29 27 28 27 24 23 21
75 74 74 73 73 73 72 71 68 63 57 51 46 42 41 42 46 51 56 61 65 68 69 68 68 67 66 66 66 67 70 72 73 73 73 73 72 71 70 72 73 75 77 77 74 72 72 71 71 70 70 70 72 72 72 75 78 76 75 75 73 71 68 64 60 58 56 54 54 54 52 48 45 44 42 41 41 39 34 30 28 28 28 28 27 25 24 21
78 77 76 76 76 76 76 72 66 59 51 45 40 38 38 39 43 48 53 58 63 66 68 69 69 69 69 69 68 69 71 73 74 74 75 76 75 73 72 73 75 76 77 77 75 73 73 74 74 73 72 72 72 72 72 72 76 78 77 77 75 72 70 68 66 63 58 56 55 56 56 53 49 47 44 42 42 41 38 33 28 28 29 28 27 26 25 21
82 81 80 80 80 79 76 70 61 52 45 41 37 36 35 37 40 45 50 55 60 64 67 68 69 70 71 71 71 72 71 73 75 76 77 77 76 75 74 74 76 77 77 77 77 76 76 77 77 76 74 74 73 73 72 71 74 77 79 79 76 74 73 72 69 65 61 58 57 57 57 56 53 50 46 43 43 42 41 38 34 31 29 27 28 29 26 23
85 84 83 83 83 79 72 63 54 47 42 37 34 33 33 34 36 40 46 51 56 60 64 66 68 70 72 72 73 73 72 74 76 77 79 78 77 76 75 75 77 78 78 79 79 79 79 79 78 77 76 76 75 72 71 71 72 75 79 80 78 76 76 74 68 64 65 63 60 59 58 58 56 54 49 46 45 43 42 42 40 37 33 29 30 30 27 24
88 88 87 86 82 74 65 56 49 43 38 34 31 29 29 30 32 36 40 45 51 55 60 63 66 68 70 72 73 74 75 76 78 79 80 80 79 78 78 78 79 81 81 81 81 81 81 81 79 79 78 77 76 73 72 71 71 72 77 80 79 78 78 75 65 60 67 69 64 61 60 59 58 56 52 49 47 44 43 43 42 40 36 32 31 30 27 25
91 90 89 85 76 66 57 50 44 39 34 30 27 25 26 27 29 32 36 40 45 50 54 58 62 65 67 70 73 76 78 78 79 80 81 81 81 79 79 80 81 82 84 83 82 82 83 82 81 80 79 78 76 74 72 71 70 71 75 78 80 80 79 78 71 66 70 71 67 63 61 60 59 57 55 52 50 48 46 45 43 41 38 34 34 31 26 24
93 91 87 79 68 59 52 46 40 34 30 26 23 22 23 24 26 29 33 36 40 44 49 53 57 61 65 69 73 77 78 79 80 81 81 82 82 81 81 82 82 83 84 83 81 83 84 83 83 82 81 79 77 75 73 71 71 73 75 76 78 80 80 81 79 75 71 70 70 66 62 62 60 58 57 56 53 51 50 48 45 42 40 37 35 31 26 24
93 90 81 70 60 53 47 41 34 29 25 22 20 19 20 21 23 26 29 33 36 40 44 48 53 58 63 67 71 75 77 78 80 80 80 82 82 82 83 83 83 83 84 84 83 84 85 84 84 84 82 81 79 78 74 72 73 76 76 75 76 79 82 82 82 79 72 69 71 69 65 64 62 60 59 58 56 53 52 51 48 45 43 40 38 33 27 23
92 84 73 62 54 48 42 35 29 24 22 19 17 17 17 18 20 23 26 30 34 37 41 46 50 55 60 65 69 73 76 78 79 79 80 82 83 83 84 84 84 83 84 85 85 84 85 86 85 85 84 83 82 79 75 75 77 78 78 77 75 76 81 82 81 81 76 69 68 70 67 64 63 61 60 59 58 55 52 51 50 48 45 43 41 38 33 26
86 75 64 55 47 42 36 30 24 21 18 16 15 15 15 17 19 22 26 29 33 36 39 44 48 53 57 62 67 72 75 78 79 80 81 82 83 84 84 84 84 83 83 86 87 86 86 87 86 85 85 85 84 80 78 80 81 81 80 78 75 74 78 81 81 81 79 72 69 69 68 65 63 62 61 60 59 58 54 52 51 50 48 45 43 41 39 33
77 67 58 49 42 36 31 25 20 18 16 14 14 14 15 17 19 23 26 30 34 37 39 42 46 51 56 61 66 70 73 76 79 81 82 83 84 84 84 84 84 84 85 89 91 90 89 88 87 87 87 86 85 81 80 82 82 81 80 79 77 75 75 78 81 82 81 78 74 71 69 67 65 63 62 61 60 59 58 55 53 53 52 49 46 44 42 37
69 60 52 44 37 32 27 21 17 16 15 14 13 14 15 17 19 23 26 29 33 37 40 42 46 49 54 59 64 68 72 76 79 82 83 83 84 84 84 85 85 86 88 92 94 94 92 91 90 89 88 87 85 83 82 83 83 81 80 79 78 76 74 75 79 83 81 79 78 75 71 69 67 65 63 62 61 60 59 58 56 56 55 53 50 47 44 40
62 54 46 39 32 28 23 19 16 15 15 14 14 15 17 18 20 22 24 27 32 37 40 43 46 49 52 57 62 67 72 75 78 81 82 83 84 84 85 87 89 90 91 93 95 96 95 94 93 92 90 88 86 84 83 84 84 82 80 80 79 77 74 74 77 81 81 80 79 77 73 71 70 68 66 65 63 61 60 60 59 57 56 55 53 50 47 43
57 48 41 34 29 24 20 16 15 15 14 15 16 18 20 20 21 22 23 25 29 34 39 42 45 48 51 55 60 65 69 73 77 80 83 85 86 87 89 91 93 93 93 93 95 97 97 95 94 93 92 90 88 86 85 86 85 83 81 80 80 78 76 75 77 79 80 80 80 77 73 71 70 69 68 67 66 64 62 61 60 59 57 56 54 53 50 47
51 43 36 30 25 21 18 16 16 15 14 17 19 23 25 24 24 24 24 24 25 29 35 40 45 48 51 54 57 60 65 70 75 79 83 86 88 89 91 93 94 94 93 93 94 96 97 96 94 93 92 92 91 89 87 88 87 86 84 83 82 81 80 78 77 78 79 80 81 79 74 72 71 71 70 70 69 67 65 62 61 60 58 57 56 54 53 51
45 39 33 27 22 18 17 16 16 14 15 19 23 27 29 28 25 23 22 21 22 26 32 38 43 48 52 54 57 60 63 68 74 78 81 85 87 89 90 91 91 92 92 92 93 94 97 97 94 91 91 90 91 90 90 89 89 87 86 86 85 84 83 81 79 77 78 80 82 82 78 74 73 73 73 73 71 68 66 63 61 60 59 58 58 56 55 53
41 35 30 24 19 15 15 15 15 15 18 24 28 31 31 28 24 21 19 18 20 24 29 35 41 47 53 56 57 59 63 67 72 76 80 83 85 87 88 88 88 89 90 91 91 93 96 97 95 92 91 90 91 92 91 90 90 90 89 88 87 85 84 83 81 78 77 79 82 83 80 76 73 73 74 73 71 69 66 62 60 59 60 60 60 59 57 53
37 32 27 22 17 15 15 15 15 17 22 27 30 33 33 30 26 21 16 15 18 22 26 32 38 44 50 55 57 58 62 66 68 71 75 78 81 83 85 86 86 86 88 89 90 91 94 96 95 92 91 91 92 92 91 91 91 91 91 89 88 87 86 85 83 80 77 78 81 81 80 76 74 74 73 72 69 65 63 62 61 58 59 62 63 62 60 55
35 30 25 20 16 16 16 16 17 20 24 28 31 34 34 30 25 20 15 12 14 18 23 28 33 40 46 52 57 59 62 64 64 66 71 74 76 79 81 82 83 85 87 88 89 90 92 95 96 94 92 91 92 92 91 92 93 93 93 92 90 88 87 85 84 82 79 79 80 81 80 77 75 75 74 72 68 62 58 59 62 61 58 60 63 64 63 61
33 27 23 18 16 15 16 16 19 21 25 30 34 36 35 29 23 18 13 9 10 14 19 25 30 36 42 48 55 60 62 64 64 66 68 70 73 77 78 80 82 84 86 88 89 89 91 94 97 96 93 91 91 91 91 92 93 94 94 93 92 90 88 87 86 85 83 81 80 80 81 79 77 76 75 73 67 61 58 55 58 64 63 60 61 64 66 65
31 26 20 17 16 15 15 17 20 23 27 32 36 37 34 29 23 17 11 7 7 11 17 23 29 33 38 44 52 58 63 65 65 67 67 68 72 75 77 79 81 84 86 87 88 89 91 94 96 96 94 92 90 90 91 92 93 93 94 94 93 92 91 90 89 87 86 84 81 80 80 81 80 78 75 74 67 62 59 53 53 63 66 63 61 61 65 67
30 24 19 16 15 15 15 17 21 24 29 33 36 36 33 29 22 16 11 6 4 9 15 20 25 30 34 40 48 55 62 65 66 68 68 68 71 73 75 77 80 83 85 87 88 89 91 93 95 95 95 93 91 90 92 94 94 94 95 95 94 93 92 92 92 90 88 86 83 81 81 81 82 81 78 77 72 68 65 57 53 62 68 66 63 62 63 66
28 22 18 16 15 15 15 18 21 24 28 32 35 36 34 30 24 17 12 8 3 5 12 16 21 26 31 36 42 50 57 64 68 69 68 68 69 71 72 75 78 82 84 86 87 88 90 92 94 94 94 95 94 93 93 94 96 96 96 96 95 94 94 93 93 92 91 89 86 84 83 82 83 84 81 80 78 76 75 67 59 63 69 69 66 63 62 65
27 21 17 16 15 14 16 18 21 24 28 32 35 36 35 32 26 19 14 10 7 1 8 14 18 22 27 31 37 44 51 59 67 70 69 68 68 69 70 73 76 79 82 84 85 87 89 91 93 94 95 96 97 96 94 95 96 97 96 96 96 96 96 96 95 94 92 91 89 87 85 83 83 85 84 83 82 80 81 77 68 63 66 71 72 67 61 61
26 20 17 15 14 14 16 19 21 24 29 33 36 37 36 33 28 22 16 12 10 5 3 11 16 19 22 27 33 40 47 55 63 68 71 70 69 68 69 71 74 76 79 81 83 85 88 90 92 94 96 98 99 98 97 96 97 96 95 96 97 97 98 98 97 95 94 92 90 88 86 84 84 85 86 87 86 84 84 84 78 70 66 70 76 77 71 65
24 20 17 15 13 14 16 19 22 25 29 33 36 38 36 33 30 25 19 14 12 8 2 7 14 17 20 24 29 36 43 50 57 65 70 72 71 69 69 70 72 74 77 79 81 84 86 89 91 93 97 100 100 99 98 97 97 95 94 94 96 98 99 99 98 97 97 95 92 89 86 85 84 85 87 88 89 89 87 87 87 82 74 71 73 78 79 75
23 19 16 14 12 13 16 19 21 25 29 33 37 38 37 34 31 26 21 16 13 11 7 1 9 14 18 22 27 32 38 45 52 59 66 71 73 71 70 70 72 74 77 80 82 84 86 88 90 93 96 99 100 100 100 98 96 94 92 93 95 97 99 101 101 100 99 97 94 91 88 86 86 86 86 87 89 90 89 88 89 88 85 80 76 75 77 78
22 18 15 13 12 13 15 18 21 24 28 33 36 38 38 35 32 27 22 18 15 12 9 5 3 10 15 20 23 28 34 40 46 52 59 66 71 73 73 72 73 75 78 80 82 84 86 87 89 91 93 96 99 100 99 98 96 95 93 94 95 96 97 101 102 101 99 97 95 93 90 88 87 86 85 85 86 88 89 90 90 89 88 87 84 79 77 78
22 18 15 13 11 12 16 18 21 24 28 32 35 37 38 36 33 27 22 20 17 13 10 7 2 5 12 16 19 24 29 35 41 47 53 59 67 73 75 74 74 75 77 80 82 84 86 87 87 88 91 94 97 99 99 97 96 96 95 96 97 96 97 100 101 100 99 97 96 94 93 90 88 87 86 85 85 86 88 90 91 90 89 88 88 86 82 80
21 18 15 12 11 12 16 18 21 23 27 30 33 36 37 36 33 29 23 20 19 16 11 8 5 2 8 13 17 20 25 30 35 41 47 53 60 68 73 74 75 75 76 78 79 82 84 85 86 87 89 92 95 97 98 96 95 95 96 97 97 98 98 100 100 100 99 98 96 95 94 93 90 88 87 86 86 87 88 90 91 92 91 88 87 88 88 84
20 18 15 12 11 12 15 18 21 23 26 30 32 34 35 35 33 30 25 21 19 17 13 10 7 3 3 8 13 17 21 25 29 35 41 47 53 61 68 73 77 77 76 76 78 79 81 83 85 86 88 90 92 95 96 96 95 95 96 97 98 98 99 100 100 100 99 98 97 96 96 95 93 91 88 87 87 88 90 91 92 93 93 92 90 89 90 89
Wind_Direction
294 291 287 284 281 279 276 274 271 269 266 263 260 257 255 252 250 248 245 243 240 238 236 234 232 231 230 230 230 230 230 229 228 226 225 224 224 223 222 219 217 216 218 218 218 217 217 217 218 217 215 214 213 213 212 212 209 209 214 212 206 202 196 191 189 201 214 193 162 152 150 159 174 183 185 178 154 134 91 59 52 58 54 49 45 40 39 41
297 294 291 287 284 280 276 273 271 268 266 264 261 258 255 252 251 249 248 245 242 239 237 235 234 232 231 230 230 230 230 230 228 226 225 224 223 223 223 220 218 216 216 217 218 217 217 217 218 217 215 214 213 213 212 212 209 207 213 212 205 199 195 196 190 195 215 204 169 154 148 157 181 194 187 190 178 163 157 49 59 63 55 50 48 42 38 38
308 304 300 295 291 286 281 277 273 269 266 264 261 259 256 253 250 249 248 247 244 241 238 236 234 233 231 230 229 229 230 229 228 227 225 224 222 223 223 221 218 217 216 216 217 217 217 217 217 217 215 214 213 213 212 211 210 207 211 213 209 203 196 193 189 194 211 207 175 160 153 156 177 204 209 230 217 197 244 283 78 87 63 51 49 43 37 35
321 317 312 307 303 298 292 286 280 275 270 266 263 260 257 255 252 249 248 247 246 243 241 238 236 234 232 231 230 229 229 229 228 227 225 223 222 222 222 221 219 218 216 215 216 217 217 217 217 217 216 214 212 213 213 212 210 208 210 211 209 204 194 186 186 194 209 207 182 168 168 168 174 196 219 230 225 224 246 248 177 122 76 53 48 40 36 33
322 320 316 313 309 306 302 296 290 284 278 272 267 263 260 256 253 250 248 246 246 244 243 240 237 235 233 232 230 229 229 229 227 227 225 223 223 222 222 221 220 219 216 215 215 216 217 216 216 216 216 214 212 212 213 212 211 209 209 209 207 204 199 191 188 194 203 202 187 175 175 180 178 184 207 220 220 230 235 220 191 160 8 31 45 35 30 31
319 318 316 314 311 308 305 301 297 292 286 281 275 269 264 260 256 251 248 246 244 243 242 242 240 237 234 232 231 229 229 229 227 226 225 224 223 222 222 221 220 219 217 215 215 216 216 216 216 216 216 214 212 211 213 213 212 211 210 209 207 206 206 199 193 194 197 194 190 181 176 184 187 181 191 209 217 227 235 245 225 205 298 312 28 27 25 28
316 315 313 311 310 308 306 303 299 294 290 286 281 275 269 264 260 255 250 247 244 242 241 241 241 240 237 233 232 231 229 229 228 226 225 223 223 222 222 221 220 220 218 216 215 215 216 216 216 216 215 214 212 211 212 213 213 212 211 210 208 206 205 199 195 196 195 192 189 187 182 184 193 190 187 200 215 226 238 256 251 242 266 280 325 9 22 25
313 310 307 306 304 304 304 303 301 296 292 288 283 278 274 269 264 259 254 250 246 242 239 239 240 239 239 236 233 231 230 229 228 227 225 223 222 221 221 221 221 220 219 217 215 215 216 216 216 216 215 214 212 211 211 212 213 213 212 212 209 206 204 199 196 195 193 193 189 187 190 187 193 199 192 194 210 223 234 246 254 257 250 247 295 338 11 18
313 308 304 302 300 299 299 299 298 297 294 289 284 279 275 271 267 262 258 253 249 244 239 238 238 238 238 238 235 232 231 229 227 226 226 224 223 222 221 221 221 219 218 218 216 215 215 215 216 216 215 213 213 211 211 212 212 213 212 213 210 207 206 202 199 196 192 194 189 184 194 194 192 197 194 191 203 219 229 238 249 254 243 235 285 323 345 0
316 312 307 302 298 295 294 294 294 294 293 290 286 281 276 272 268 264 260 255 251 247 242 238 237 236 236 236 237 235 232 230 228 226 226 225 223 222 221 221 221 219 218 217 217 215 214 215 216 216 214 213 213 212 211 211 212 214 213 213 211 208 208 206 205 201 197 196 189 182 190 198 195 195 193 192 201 217 227 234 243 244 240 239 268 311 323 332
318 315 312 307 301 295 292 291 290 290 289 288 286 283 278 273 269 264 260 257 252 249 245 240 237 235 235 234 235 236 234 232 229 226 225 225 224 222 221 221 221 219 217 217 217 216 215 215 215 215 214 213 213 212 211 210 212 214 213 212 212 210 209 209 210 207 203 198 190 183 183 189 197 198 194 195 200 213 227 233 237 238 238 243 262 300 312 311
321 317 315 311 306 300 294 290 288 286 285 284 283 282 279 274 269 265 261 257 253 250 246 242 238 235 234 233 232 234 236 234 231 227 225 225 225 223 221 221 220 219 218 217 217 217 216 215 214 214 214 213 213 212 211 210 211 214 214 213 214 213 211 211 212 211 207 200 192 187 185 185 193 200 197 198 200 207 222 229 232 235 234 242 264 293 302 299
323 320 317 314 310 305 300 294 289 286 283 281 279 278 278 276 271 265 262 259 254 250 246 243 240 236 234 232 230 231 233 233 231 228 225 224 224 224 222 221 221 220 218 217 217 217 217 215 214 214 214 213 213 212 211 210 210 213 214 214 215 215 213 212 212 213 211 207 198 191 191 189 190 199 202 201 201 205 215 224 227 228 231 246 268 290 293 289
324 322 320 317 313 309 304 299 293 289 284 281 277 274 273 273 271 266 261 258 255 251 246 242 239 237 234 231 230 230 230 231 231 229 226 224 224 224 222 220 220 220 219 217 216 216 217 216 214 214 214 214 213 212 211 210 210 212 214 214 215 216 215 213 213 214 214 211 205 197 195 194 191 196 205 205 202 203 209 219 221 223 235 252 267 285 285 280
324 322 320 317 314 311 307 302 297 292 287 282 278 273 269 268 268 266 261 257 254 252 248 243 239 236 234 231 229 229 229 229 229 228 227 224 223 224 223 221 220 220 219 218 216 216 216 216 215 215 214 214 214 213 211 211 210 211 214 215 214 215 215 213 214 216 216 213 210 204 199 197 193 193 203 208 205 203 207 213 219 227 239 250 263 275 272 273
323 321 319 317 315 312 308 304 299 295 290 285 280 275 269 265 263 262 260 256 253 251 249 245 241 237 233 231 229 228 229 229 228 227 227 225 222 223 223 221 221 220 219 218 217 216 216 215 215 216 215 215 215 213 212 211 211 211 213 215 215 215 215 213 213 215 216 214 213 210 203 198 195 194 198 208 210 208 209 210 217 228 235 243 256 259 256 270
322 321 319 318 316 313 310 306 302 298 293 288 283 277 271 265 260 258 256 254 251 248 247 245 242 238 234 231 229 228 228 229 228 226 226 227 224 222 222 221 221 220 219 218 217 217 216 215 215 216 216 216 215 214 212 212 212 211 213 215 216 216 215 214 213 214 216 215 214 212 207 200 198 198 197 204 213 212 208 209 214 223 228 236 247 247 252 270
322 321 320 318 317 314 312 308 305 301 297 291 285 279 272 265 258 254 252 250 247 245 244 243 242 240 236 232 230 228 227 228 229 226 224 227 225 223 223 221 220 220 219 218 217 217 216 215 215 216 216 217 216 215 213 213 213 211 211 213 216 217 215 214 214 214 216 216 214 213 210 204 202 204 200 199 211 213 208 208 213 219 223 230 237 241 253 269
322 322 321 320 318 316 314 312 308 304 300 295 288 281 274 266 257 251 247 245 242 240 240 240 240 239 237 234 230 227 226 226 227 225 222 224 225 223 222 221 220 220 219 219 218 217 216 215 215 215 216 217 217 215 214 214 214 212 212 212 215 218 216 214 214 215 216 216 215 215 212 207 206 208 204 197 203 212 210 210 215 219 220 225 232 238 251 265
323 323 322 321 320 318 316 314 311 307 303 297 291 283 274 264 254 247 242 239 237 236 237 237 238 238 237 235 231 227 225 225 225 224 221 221 223 223 222 221 220 219 219 219 218 217 217 216 215 215 216 216 216 216 215 215 215 214 213 213 216 218 218 216 215 215 216 215 215 215 213 210 209 210 210 202 199 207 214 216 221 223 217 219 227 233 242 254
325 325 324 322 321 320 318 315 312 309 304 298 291 282 272 260 250 242 237 234 233 232 233 233 234 234 234 233 232 228 226 224 224 223 221 220 220 222 221 220 219 219 219 219 218 217 218 217 216 215 215 216 217 217 215 215 216 214 212 213 215 217 219 219 218 217 217 216 215 215 213 214 213 212 213 209 203 207 215 220 227 228 221 220 224 230 238 245
327 326 325 324 322 321 319 316 313 310 305 298 289 279 268 256 247 239 234 232 230 230 229 229 230 231 231 231 230 228 225 224 223 222 221 220 219 220 220 220 219 218 218 218 217 217 218 217 216 215 215 216 217 217 216 215 216 215 213 213 214 216 218 219 219 219 218 216 216 216 215 216 217 216 215 212 209 210 213 217 225 229 228 227 226 230 237 242
328 327 326 325 324 322 319 317 314 310 304 297 288 277 265 255 246 239 234 231 229 229 228 227 227 228 229 229 229 228 225 222 221 220 220 220 218 218 219 219 218 218 218 217 217 217 218 218 217 216 215 216 217 217 216 216 216 215 214 214 214 214 217 219 220 219 218 217 217 217 218 218 218 219 217 215 213 214 214 212 216 222 225 227 227 228 233 238
328 328 327 326 324 322 320 317 313 309 303 297 288 278 267 256 247 241 236 232 229 229 228 226 225 226 226 227 227 227 225 222 220 219 219 219 218 217 217 218 218 217 217 217 216 216 217 218 217 216 215 216 216 216 216 216 217 216 215 214 214 214 216 218 219 219 218 218 218 217 219 219 218 219 219 217 216 217 216 213 214 215 216 221 224 227 229 234
329 329 328 326 324 322 320 316 313 309 304 297 288 278 268 258 249 242 237 234 231 229 228 227 225 225 225 225 225 224 223 221 219 218 217 218 217 216 216 217 218 217 216 216 215 216 217 218 218 217 216 216 216 216 216 216 217 217 215 214 214 214 216 217 219 221 221 219 218 217 218 220 219 219 219 218 218 219 220 219 219 218 217 218 221 226 232 235
330 329 328 326 324 322 319 316 313 309 304 296 288 277 267 257 250 243 238 235 232 230 229 227 226 225 224 224 222 221 220 219 218 217 217 216 216 215 215 216 216 216 215 215 214 215 216 217 218 218 217 217 216 215 215 216 218 218 216 214 214 213 215 215 214 219 222 219 217 217 217 220 221 220 220 219 219 220 222 223 222 222 222 219 218 222 231 235
330 328 327 326 324 322 319 316 313 309 302 294 285 275 266 257 251 246 241 237 233 231 229 227 225 224 222 221 219 218 217 217 216 216 216 215 215 214 214 215 216 215 215 215 214 215 216 216 217 218 218 217 217 216 215 216 218 219 217 215 214 213 214 214 211 214 220 219 217 216 216 218 221 221 221 220 220 220 222 224 224 224 222 218 217 220 225 230
329 328 327 326 324 322 319 316 313 307 300 292 281 272 264 257 251 247 243 239 235 232 230 227 224 221 220 218 217 215 215 215 215 214 214 215 214 214 213 214 215 215 215 215 214 215 216 216 216 217 218 218 217 216 215 216 218 219 217 215 215 214 214 214 213 214 217 216 215 216 216 217 219 220 221 221 220 220 222 224 226 225 222 218 217 218 221 228
329 328 327 326 324 321 318 316 312 305 297 289 280 271 263 257 252 247 244 241 237 232 229 226 223 220 218 216 215 214 214 214 215 214 214 214 214 214 213 213 214 214 214 213 214 215 216 216 216 216 217 217 217 216 214 216 219 219 216 215 215 214 213 214 215 216 217 216 215 215 215 217 218 219 220 220 221 221 222 224 226 226 223 220 219 220 222 230
329 328 327 326 323 320 318 315 310 303 295 289 282 274 266 259 254 249 246 243 239 233 228 226 223 219 217 215 214 212 212 213 213 213 213 214 214 214 213 213 213 213 213 213 213 214 216 216 216 216 217 217 217 215 214 215 218 218 216 216 216 214 214 214 215 216 217 217 216 215 216 217 218 219 220 220 221 221 221 222 226 227 226 224 223 224 225 229
329 328 327 326 323 320 318 315 310 302 296 291 283 274 265 258 255 252 249 245 241 236 230 225 222 220 217 215 214 212 211 211 212 212 212 213 213 213 213 213 213 213 212 212 212 213 214 216 216 216 217 217 217 216 214 216 217 217 216 216 216 215 214 214 215 215 215 216 216 216 216 218 219 220 220 221 221 221 221 222 224 226 226 226 226 226 226 229
329 328 327 326 324 320 318 314 308 301 296 291 283 275 268 263 260 256 252 247 243 239 233 227 222 219 217 215 214 212 211 211 211 212 212 212 212 213 212 213 213 213 211 211 211 212 212 213 215 216 216 217 217 216 216 218 218 218 218 217 216 216 214 214 215 216 215 215 217 217 217 218 219 220 221 221 221 222 222 223 223 224 225 226 227 228 228 230
330 328 328 327 325 321 318 314 309 306 303 297 289 283 280 276 272 264 256 250 244 239 234 229 224 220 217 216 214 212 211 211 211 212 212 211 212 212 212 212 212 212 211 210 210 211 212 212 212 214 215 217 217 216 217 219 219 219 218 218 217 217 215 214 215 216 216 215 217 217 217 218 219 219 220 221 222 221 222 223 223 224 225 226 227 229 230 231
331 329 329 328 325 321 319 317 315 313 308 302 299 299 296 291 285 275 261 251 244 238 234 229 225 221 217 216 214 212 211 211 211 211 211 211 211 210 210 211 211 211 212 211 210 211 211 212 212 212 213 214 216 216 217 220 220 220 219 219 219 218 216 215 215 216 216 215 215 216 217 218 218 219 219 220 221 221 221 222 222 223 224 226 228 229 231 232
331 330 330 329 326 321 320 321 319 315 312 311 315 315 311 306 301 289 272 256 245 238 234 229 225 222 218 216 215 213 212 212 212 211 211 210 210 210 210 210 211 211 211 211 211 211 212 212 212 212 211 212 214 215 216 219 220 220 220 220 220 219 218 216 215 215 216 215 214 215 216 218 219 220 220 220 221 221 221 222 222 223 224 225 227 229 231 232
332 331 331 329 324 321 324 327 323 319 319 323 327 326 323 319 311 299 281 263 248 238 232 228 223 221 219 216 214 213 212 212 213 213 212 211 211 211 211 210 211 211 211 211 210 211 212 213 213 213 213 212 213 214 215 218 219 219 219 219 220 219 219 217 216 215 216 215 214 214 215 216 218 219 220 220 220 221 222 222 222 223 224 225 226 227 229 229
333 332 332 329 324 325 330 327 321 319 326 333 335 333 329 323 314 301 286 270 251 236 229 224 220 217 217 216 212 210 210 211 212 213 214 213 212 212 212 212 212 212 211 211 211 211 211 213 213 213 214 214 214 214 214 216 218 219 219 219 219 219 219 218 217 216 216 215 214 213 213 214 217 219 220 220 220 221 222 223 225 225 225 226 226 225 226 226
335 333 332 330 327 329 329 320 318 327 339 343 339 334 330 325 319 306 289 271 252 237 227 222 219 215 214 215 213 210 210 211 211 212 214 214 214 214 213 212 212 213 213 212 212 211 212 212 212 212 213 214 215 215 215 216 218 219 219 220 220 220 220 220 218 216 215 215 214 214 213 214 215 219 221 222 221 222 223 224 226 228 229 229 228 227 226 226
337 334 331 331 331 332 328 323 329 342 347 344 339 335 334 332 325 312 294 269 248 236 227 221 218 215 213 214 214 211 210 211 211 212 214 215 215 216 215 213 212 212 214 214 213 212 212 212 212 212 213 213 214 215 216 217 219 219 220 220 220 221 221 221 220 218 216 215 214 214 213 213 215 217 220 221 221 222 224 225 226 228 231 231 232 231 228 227
338 334 331 333 336 336 333 331 340 348 347 342 340 340 339 335 327 316 301 272 245 232 225 220 217 215 212 211 212 212 211 210 209 211 213 213 214 215 215 215 213 212 213 214 214 213 213 213 212 212 213 213 214 215 216 217 218 220 220 220 220 221 221 222 221 219 217 215 214 214 212 212 215 216 218 219 219 219 222 226 227 227 229 230 231 231 229 226
339 335 332 334 339 338 334 337 343 347 347 345 345 344 341 338 332 322 308 281 245 225 219 217 215 214 211 209 210 211 211 211 209 209 210 211 212 213 213 213 213 213 213 213 213 213 213 214 213 212 212 214 215 215 216 217 219 220 221 221 221 221 221 222 222 221 219 216 214 214 212 211 213 216 217 218 217 216 218 223 228 228 229 230 229 228 228 226
339 336 334 336 338 336 334 340 345 347 349 349 347 344 343 343 340 330 316 293 249 220 213 213 213 212 210 209 208 209 210 211 210 209 209 208 210 211 211 211 212 212 213 213 213 213 213 214 214 212 212 213 215 216 216 217 219 221 222 222 222 222 221 221 222 222 220 217 214 214 213 212 212 214 216 216 215 214 214 218 226 228 229 229 227 226 225 225
338 335 335 337 338 335 335 343 348 349 350 349 347 346 346 348 349 341 330 318 263 219 211 210 211 211 210 209 208 208 209 210 211 211 209 207 208 209 209 210 211 211 212 213 213 213 213 214 214 212 212 213 214 216 216 216 217 219 221 222 222 223 223 222 222 222 221 218 216 214 214 212 212 213 215 215 213 212 210 210 218 224 224 225 227 227 226 224
338 335 335 337 337 335 337 345 349 350 350 349 349 350 351 352 355 353 347 345 331 222 208 206 207 209 210 209 209 208 208 209 210 211 211 209 209 209 208 208 210 211 212 212 213 213 213 214 214 212 212 213 213 214 216 217 217 218 220 221 222 223 223 224 224 223 222 219 217 215 214 213 212 212 213 214 214 214 211 209 214 221 222 223 226 227 227 224
337 336 335 336 337 335 338 345 348 348 350 350 352 354 355 355 357 0 359 359 5 316 203 199 201 206 207 208 209 209 208 209 210 211 211 211 210 209 208 208 209 211 211 212 213 213 214 214 214 213 212 213 214 214 215 216 217 217 219 220 221 222 223 224 224 224 224 222 219 216 215 214 214 212 213 214 215 215 214 212 214 220 222 223 224 225 225 225
336 335 335 338 338 335 339 345 348 348 350 352 354 357 359 359 358 2 6 6 10 13 193 194 197 201 203 205 207 208 208 208 209 210 211 211 211 210 209 208 208 210 211 212 213 214 214 215 215 214 213 213 214 215 216 217 218 217 218 220 221 221 223 223 224 224 225 224 222 220 217 216 215 214 213 214 215 216 216 214 214 218 220 221 223 225 226 226
334 333 336 340 338 336 341 346 347 348 351 353 355 357 1 2 0 1 5 9 12 11 5 194 195 197 199 202 205 207 208 208 209 209 210 210 211 210 209 209 208 208 210 211 212 214 215 215 215 215 214 214 214 215 216 218 219 218 218 220 222 222 222 223 224 224 224 224 223 222 220 219 218 217 215 214 216 217 218 217 217 219 220 220 221 224 226 227
333 332 336 338 335 335 342 346 346 348 352 354 355 357 360 3 3 2 2 6 12 10 3 233 195 195 197 201 203 205 208 208 209 210 210 210 210 210 209 209 208 208 209 210 212 213 214 215 216 216 216 215 215 215 216 218 219 220 219 221 222 222 223 223 224 224 224 224 224 223 222 221 221 220 219 217 217 218 219 220 219 220 222 224 224 224 225 226
332 332 334 334 331 333 342 345 345 348 353 354 355 356 358 1 4 5 3 3 6 9 7 0 205 197 200 202 202 203 206 208 209 211 211 210 210 210 210 209 209 208 209 210 211 213 214 215 216 217 217 216 216 216 216 217 219 220 220 221 222 222 223 223 224 224 224 224 224 223 223 223 222 222 222 220 220 220 221 222 222 222 223 225 227 227 226 226
331 331 332 331 329 333 341 345 345 348 353 354 354 355 357 359 1 5 7 4 2 3 6 6 348 212 205 203 203 203 205 207 209 211 211 211 211 211 211 211 211 210 209 210 211 212 214 214 215 216 217 218 217 217 216 217 218 219 220 222 223 223 223 223 223 224 224 225 225 225 224 224 224 223 223 223 222 223 223 224 225 224 223 224 226 228 227 227
330 329 329 329 328 333 339 343 344 348 352 354 354 355 355 356 357 0 4 6 2 359 358 3 4 263 215 206 204 205 204 205 207 210 211 211 211 212 212 212 212 212 212 211 212 213 214 215 215 216 218 218 218 218 217 217 218 220 221 222 224 224 224 224 223 223 223 224 225 225 225 225 225 225 224 224 224 224 225 225 226 226 225 224 225 227 227 227
329 327 327 327 326 331 338 341 343 346 351 353 353 354 354 354 354 355 357 1 3 360 354 353 0 352 235 212 205 204 205 204 205 208 210 211 211 212 212 212 214 214 213 212 212 214 215 215 216 217 218 219 219 219 218 218 218 220 221 222 224 225 225 225 224 224 223 223 223 224 225 225 225 226 225 225 225 225 226 227 227 228 228 227 226 226 227 228